Other Public Products
Issued by NWS Grand Forks, ND

Home | Current Version | Previous Version | Graphics & Text | Print | Product List | Glossary On
Versions: 1 2 3 4 5 6 7 8 9 10 11 12 13 14 15 16 17 18 19 20 21 22 23 24 25 26 27 28 29 30 31 32 33 34 35 36 37 38 39 40 41 42 43 44 45 46 47 48 49 50
000
FPUS83 KFGF 280810
OPUFGF
PRAIRIE TO PINES WEATHER ROUNDUP
NATIONAL WEATHER SERVICE EASTERN NORTH DAKOTA/GRAND FORKS ND
200 AM CST SUN DEC 28 2014

 **SATELLITE DATA USED TO AUGMENT SKY COVER AT AUTOMATED STATIONS**
 *****  WEATHER ACROSS EASTERN NORTH DAKOTA  *****

CITY           SKY/WX    TMP DP  RH WIND       PRES   REMARKS
GRAND FORKS    CLOUDY     3  -1  83 N12       30.15R WCI -13
GRAND FORKS AF FLURRIES   2   1  91 N15       30.16R WCI -16
GRAND CITY NWS   N/A      3 N/A N/A N9          N/A  WCI -11
BUXTON         NOT AVBL
DEVILS LAKE    CLOUDY     1  -6  71 E7        30.09R WCI -11
FARGO          CLOUDY    15  10  80 N17       30.08R WCI  -1
WAHPETON ARPT  CLOUDY    19  18  93 NW7       30.06R WCI  10
$$

 *****  WEATHER ACROSS CENTRAL AND WESTERN NORTH DAKOTA  *****

CITY           SKY/WX    TMP DP  RH WIND       PRES   REMARKS
JAMESTOWN      CLOUDY    15  11  83 NE14      30.04R WCI   0
BISMARCK       CLOUDY    16  14  92 NE3       30.04S
MINOT          LGT SNOW   4  -2  76 N10       30.07F WCI -11
MINOT AFB      CLOUDY     2  -3  80 NE8       30.08F WCI -12
GARRISON         N/A     12   8  84 NE7       30.03S WCI   1
WILLISTON      CLOUDY    17  12  80 NE8       30.00F WCI   7
DICKINSON      CLOUDY    19  14  81 CALM      29.92F
HETTINGER      PTCLDY    10   6  84 CALM      29.95F
$$

 *****  OTHER OBSERVATIONS NORTHEAST NORTH DAKOTA  *****

CITY           SKY/WX    TMP DP  RH WIND       PRES   REMARKS
WALHALLA         N/A      0  -4  85 N16       30.19R WCI -21
LANGDON        CLOUDY     0  -4  85 N12       30.09R WCI -18
CAVALIER       CLOUDY     0  -8  71 N13       30.18R WCI -18
GRAFTON        NOT AVBL
CANDO          CLOUDY     0  -2  92 CALM      30.12R
FORT TOTTEN      N/A      2  -3  79 NE5       29.95  WCI  -8
ROLLA          CLOUDY     0  -2  92 NE8       30.08R WCI -15
RUGBY          FAIR       1   0  92 NE8       30.10R WCI -12
 ***** THE ABOVE OBSERVATIONS ARE NON NWS ARE NOT QUALITY
        CONTROLLED AND MAY MIS-REPORT RAIN FOR SNOW...
$$

 *****  OTHER OBSERVATIONS SOUTHEAST NORTH DAKOTA *****

CITY           SKY/WX    TMP DP  RH WIND       PRES   REMARKS
COOPERSTOWN    NOT AVBL
VALLEY CITY    CLOUDY    10  10 100 N10       30.06R WCI  -3
OAKES            N/A     16  16 100 SW5       30.05S WCI   9
GWINNER        PTSUNNY   19  19 100 SW9       30.06R WCI   9
BUFFALO        NOT AVBL
WYNDMERE         N/A     18  16  93 W3          N/A
 ***** THE ABOVE OBSERVATIONS ARE NON NWS ARE NOT QUALITY
       CONTROLLED AND MAY MIS-REPORT RAIN FOR SNOW...
$$

  *****  WEATHER ACROSS NORTHERN MINNESOTA  *****

CITY           SKY/WX    TMP DP  RH WIND       PRES   REMARKS
FLAG ISLAND    CLOUDY     0  -8  71 NW18      30.08R WCI -22
WARROAD        CLOUDY     0  -6  78 NW5       30.09S WCI -10
ROSEAU         CLEAR     -2  -8  78 NW5       30.11R WCI -12
HALLOCK        CLEAR     -4 -11  71 N15       30.17R WCI -25
THF RVR FALLS  CLOUDY     3  -2  78 N17       30.10R WCI -17
HALSTAD          N/A     11   7  84 N18         N/A  WCI  -7
FOSSTON        FLURRIES   9   5  85 N15       30.06R WCI  -8
BAUDETTE       CLOUDY    -1  -7  75 NW15      30.07R WCI -21
WASKISH        CLOUDY     5   1  85 N5        30.06R WCI  -4
CROOKSTON      MOCLDY     7   1  78 N12       30.14R WCI  -9
$$
  *****  WEATHER ACROSS CENTRAL AND WEST MINNESOTA  *****

CITY           SKY/WX    TMP DP  RH WIND       PRES   REMARKS
BEMIDJI        FLURRIES  13   9  83 N10       30.01S WCI   0
PARK RAPIDS    CLOUDY    21  17  84 NW5       29.99S WCI  15
WADENA         CLOUDY    21  18  86 CALM      30.00S
DETROIT LAKES  CLOUDY    21  19  93 N6        30.02R WCI  14
MOORHEAD       MIX PCPN  16  16 100 N17       30.08R WCI   0
FERGUS FALLS   MOCLDY    16  16 100 W3        30.06S
ELBOW LAKE     FAIR      15  13  93 W5        30.03S WCI   7
MORRIS MN      CLEAR     12  10  92 W3        30.03F
STAPLES        CLOUDY    19  18  93 W5        30.01R WCI  13
WHEATON        CLEAR     16  14  93 W8        30.07R WCI   5
$$
  *****  WEATHER ELSEWHERE ACROSS MINNESOTA  *****

CITY           SKY/WX    TMP DP  RH WIND       PRES   REMARKS
DULUTH         FLURRIES  18  12  77 W8        29.96S WCI   8
INTRNTL FALLS  CLEAR      2  -3  80 NW10      30.03R WCI -14
ELY            FLURRIES  12   9  85 W6        29.95S WCI   3
CLOQUET        FLURRIES  19  14  79 W5        29.98S WCI  13
BRAINERD       CLOUDY    19  16  88 SW5       30.01S WCI  12
HIBBING        CLOUDY    17   9  70 NW10      29.98R WCI   5
ALEXANDRIA     PTCLDY    15  12  88 SW7       30.01S WCI   5
SAINT CLOUD    PTCLDY    17  11  77 CALM      30.04S
MINNEAPOLIS    CLOUDY    12   7  80 VRB6      30.09S WCI   3
$$

  *****  WEATHER ACROSS SOUTH DAKOTA  *****

CITY           SKY/WX    TMP DP  RH WIND       PRES   REMARKS
SIOUX FALLS    PTCLDY     3   1  91 W3        30.08S
BROOKINGS      NOT AVBL
WATERTOWN      MOCLDY     9   6  88 CALM      30.02S
HURON          CLEAR      4   0  83 W3        30.06F
SISSETON         N/A     19  15  84 NW13      30.04R WCI   6
ABERDEEN       PTCLDY     9   6  88 SE3       30.06S
MITCHELL       PTCLDY     5   3  91 CALM      30.08S
PIERRE         CLEAR     14  11  87 SW7       30.04S WCI   4
MOBRIDGE       MOCLDY    14  11  87 CALM      30.00S
RAPID CITY     CLEAR     12   4  70 NW8       29.96F WCI   0
$$

  *****  SOME WEATHER IN NEARBY STATES *****

CITY           SKY/WX    TMP DP  RH WIND       PRES   REMARKS
GLASGOW MT     PTCLDY    19  16  88 E13       29.92R WCI   6
GREAT FALLS MT CLOUDY    28  23  81 S13       29.76F WCI  17
CHEYENNE WY    PTCLDY    13  -1  54 SW7       29.94F WCI   3
SCOTTSBLUFF NE PTCLDY    -2  -6  83 N6        30.02F WCI -14
OMAHA NE       CLEAR     19  14  81 S5        30.19F WCI  12
DES MOINES IA  CLEAR     18  13  80 SW5       30.20S WCI  11
DAVENPORT IA   CLEAR     19  14  81 W8        30.19R WCI   9
CHICAGO IL     CLOUDY    30  23  75 W10       30.12R WCI  21
EAU CLAIRE WI  CLOUDY    10   5  80 SW7       30.08F WCI  -1
LA CROSSE WI   CLEAR     15   9  76 S8        30.14S WCI   4
$$

  *****  SOME NATIONAL WEATHER *****

CITY           SKY/WX    TMP DP  RH WIND       PRES   REMARKS
LA GUARDIA NY  MOCLDY    47  36  65 S7        29.96F
RALEIGH NC     CLOUDY    48  39  71 SW5       30.14F
ATLANTA GA     HVY RAIN  53  51  93 S7        30.15S FOG
NEW ORLEANS LA CLOUDY    68  67  96 SE6       30.05S FOG
OKLAHOMA CITY  MOCLDY    25  18  74 NW5       30.27F WCI  19
ALBUQUERQUE NM PTCLDY    23   9  55 CALM      30.24F
SALT LAKE CITY CLOUDY    25  15  66 SE8       30.20F WCI  16
LOS ANGELES CA PTCLDY    49  24  37 CALM      30.30F
BOISE ID       FLURRIES  32  27  81 SE13      30.08F WCI  22
SEATTLE WA     CLOUDY    43  39  86 SW7       30.08S
$$

*** WEATHER ACROSS MANITOBA...SASKATCHEWAN AND ONTARIO ***
                ***ONTARIO***

CITY           SKY/WX    TMP DP  RH WIND       PRES   REMARKS
GERALDTON      PTCLDY     3  -2  78 W7        29.84R WCI  -9
THUNDER BAY    CLOUDY    14   7  73 NW10      29.97R WCI   1
SIOUX LOOKOUT  FLURRIES   0  -8  71 NW9       29.97R WCI -16
TORONTO        CLOUDY    39  34  81 W13G20    29.87R
BIG TROUT LK   FLURRIES -17 -20  83 W7        29.91R WCI -33
PICKLE LAKE    NOT AVBL
DRYDEN         CLEAR     -6  -9  84 W12       29.99R WCI -24
KENORA         PTCLDY    -8 -13  77 NW8       30.04R WCI -23
$$
                *** MANITOBA***

CITY           SKY/WX    TMP DP  RH WIND       PRES   REMARKS
BRANDON        CLOUDY    -4 -11  71 E6        30.16R WCI -16
DAUPHIN        CLEAR    -20 -26  76 W9        30.21R WCI -40
ISLAND LAKE    PTCLDY   -24 -29  76 W10       30.05S WCI -46
PILOT MOUND      N/A     -4  -8  84 NE6         N/A  WCI -16
THE PAS        PTCLDY   -20 -26  76 NW9       30.23R WCI -40
THOMPSON       MOCLDY   -18 -24  76 NW9       30.13R WCI -38
WINNIPEG       CLEAR    -17 -24  70 NW8       30.21S WCI -34
CHURCHILL      CRYSTALS -17 -22  76 N21G28    30.11R BLWGSNOWWCI -44
GILLAM         FLURRIES -20 -26  76 NW9       30.06R WCI -40
$$
                ***SASKATCHEWAN***

CITY           SKY/WX    TMP DP  RH WIND       PRES   REMARKS
ESTEVAN        CLOUDY     3  -2  78 E10       30.06R WCI -12
KINDERSLEY     NOT AVBL
LLOYDMINSTER   FLURRIES   0  -4  85 E8        30.10R WCI -15
PRINCE ALBERT  CRYSTALS -26 -31  75 W3        30.23R FOG
REGINA         MOCLDY    -4  -9  77 E6        30.08S WCI -16
YORKTON        CLEAR    -22 -27  76 W5        30.16R WCI -36
N. BATTLEFORD  CLOUDY   -11 -17  77 E8        30.18R WCI -28


USA.gov is the U.S. government's official web portal to all federal, state and local government web resources and services.